Home > Weather > St. Pölten > Past weeks

Flag for Austria Past Weather in St. Pölten, Lower Austria, Austria — Yesterday and Last 2 Weeks

Now
71 °F

Mild.


Feels Like: 72 °F
Forecast: 66 / 79 °F
Wind: 2 mph from Northwest

Location: Wien / Hohe Warte

Current Time: Jul 25, 2016 at 4:31:38 AM

Latest Report: Jul 25, 2016 at 4:00 AM


Visibility: N/A

Pressure: 30.03 "Hg

Humidity: 77%

Dew Point: 63 °F

Location of St. PöltenLocation

Past Weather in St. Pölten — Graph

°F

St. Pölten Temperature Yesterday

Maximum temperature yesterday: 84 °F (at 5:00 PM)
Minimum temperature yesterday: 68 °F (at 6:00 AM)
Average temperature yesterday: 76 °F

High & Low Weather Summary for the Past Weeks

 TemperatureHumidityPressure
High92 °F (Jul 11, 2:00 PM)96% (Jul 23, 6:00 AM)30.22 "Hg (Jul 23, 6:00 AM)
Low55 °F (Jul 14, 6:00 AM)40% (Jul 10, 3:00 PM)29.76 "Hg (Jul 14, 7:00 AM)
Average71 °F69%30.00 "Hg
* Reported Jul 10 2:00 AM — Jul 25 2:00 AM, St. Pölten, Weather by CustomWeather, © 2016

Note: Actual official high and low records may vary slightly from our data, if they occured in-between our weather recording intervals... More about our weather records

Advertising

St. Pölten Weather History for the Previous 24 Hours

Scroll right to see more
 ConditionsComfort  
Time TempWeatherWind HumidityBarometerVisibility
2:00 AM
Mon, Jul 25
72 °FOvercast.2 mph74%30.02 "Hg22 mi
1:00 AM72 °FMild.1 mph78%30.03 "HgN/A
12:00 AM74 °FMild.2 mph70%30.03 "HgN/A
11:00 PM
Sun, Jul 24
75 °FPassing clouds.3 mph70%30.03 "Hg22 mi
10:00 PM76 °FOvercast.2 mph74%30.02 "Hg22 mi
9:00 PM78 °FOvercast.2 mph71%30.01 "Hg25 mi
8:00 PM80 °FOvercast.1 mph61%29.99 "Hg22 mi
7:00 PM82 °FPartly sunny.2 mph57%29.99 "Hg19 mi
6:00 PM83 °FPartly sunny.3 mph54%29.99 "Hg31 mi
5:00 PM84 °FScattered clouds.2 mph56%29.99 "Hg31 mi
4:00 PM84 °FScattered clouds.5 mph55%30.00 "Hg31 mi
3:00 PM82 °FPartly sunny.5 mph61%30.01 "Hg31 mi
2:00 PM81 °FPartly sunny.3 mph58%30.02 "Hg31 mi
1:00 PM80 °FPartly sunny.5 mph62%30.03 "Hg31 mi
12:00 PM79 °FScattered clouds.5 mph64%30.03 "Hg25 mi
11:00 AM77 °FPartly sunny.5 mph68%30.04 "Hg19 mi
10:00 AM76 °FScattered clouds.5 mph72%30.03 "Hg19 mi
9:00 AM75 °FScattered clouds.3 mph75%30.03 "Hg19 mi
8:00 AM71 °FPassing clouds.5 mph83%30.03 "Hg19 mi
7:00 AM68 °FPartly sunny.5 mph90%30.02 "Hg19 mi
6:00 AM68 °FPartly sunny.5 mph91%30.02 "Hg16 mi
5:00 AM68 °FMild.3 mph93%30.03 "HgN/A
4:00 AM69 °FFog.2 mph91%30.02 "HgN/A
Weather by CustomWeather, © 2016

See weather overviewHow to use our weather pages